Location: Byszew
(52.1813°N, 19.2693°E)
Time: 17:09:06
(UTC+00:00)

SPROUT - Pass Details

Date: 03 July 2022
Orbit: 588 x 598 km, 97.9° (Epoch: 09 August)

Event Time Altitude Azimuth Distance (km) Brightness Sun altitude
Exits shadow 21:36:36 - 104° (ESE) 2,584 ? -13.3°
Reaches altitude 10° 21:39:09 10° 80° (E) 1,924 ? -13.5°
Maximum altitude 21:40:59 13° 54° (NE) 1,752 ? -13.5°
Drops below altitude 10° 21:42:49 10° 28° (NNE) 1,931 ? -13.6°
Sets 21:46:05 0° 360° (N) 2,840 ? -13.7°
